TimeCDT,TemperatureF,Dew PointF,Humidity,Sea Level PressureIn,VisibilityMPH,Wind Direction,Wind SpeedMPH,Gust SpeedMPH,PrecipitationIn,Events,Conditions,WindDirDegrees,DateUTC
12:23 AM,75.2,71.6,89,29.80,8.0,West,5.8,-,N/A,,Overcast,270,2012-09-03 05:23:00
1:15 AM,75.2,71.6,89,29.80,10.0,West,5.8,-,N/A,,Overcast,280,2012-09-03 06:15:00
4:52 AM,75.0,73.0,94,29.79,9.0,NW,6.9,-,0.00,,Overcast,310,2012-09-03 09:52:00
5:52 AM,73.9,73.0,97,29.81,7.0,NW,5.8,-,N/A,,Overcast,310,2012-09-03 10:52:00
6:52 AM,73.9,73.0,97,29.83,3.0,NW,8.1,-,0.01,Rain,Light Rain,320,2012-09-03 11:52:00
7:00 AM,73.4,73.4,100,29.84,2.5,NW,8.1,-,0.01,Rain,Light Rain,320,2012-09-03 12:00:00
7:02 AM,73.4,73.4,100,29.84,3.0,NW,6.9,-,0.01,Rain,Light Rain,320,2012-09-03 12:02:00
7:16 AM,73.4,73.4,100,29.84,5.0,NW,6.9,-,0.01,,Overcast,320,2012-09-03 12:16:00
7:52 AM,75.0,72.0,90,29.83,7.0,North,9.2,-,0.01,,Overcast,350,2012-09-03 12:52:00
8:52 AM,75.9,73.0,91,29.85,10.0,NW,6.9,-,N/A,,Unknown,320,2012-09-03 13:52:00
9:52 AM,78.1,73.0,84,29.86,10.0,NW,4.6,-,N/A,,Overcast,320,2012-09-03 14:52:00
10:38 AM,77.0,73.4,89,29.88,9.0,NNW,9.2,-,N/A,,Overcast,330,2012-09-03 15:38:00
10:52 AM,79.0,73.0,82,29.86,10.0,NW,8.1,-,N/A,,Overcast,310,2012-09-03 15:52:00
10:59 AM,78.8,73.4,83,29.87,10.0,NW,9.2,-,N/A,,Overcast,320,2012-09-03 15:59:00
11:52 AM,81.0,73.0,77,29.86,10.0,NNW,8.1,-,N/A,,Unknown,330,2012-09-03 16:52:00
12:52 PM,79.0,72.0,79,29.87,10.0,North,10.4,-,N/A,,Overcast,350,2012-09-03 17:52:00
3:16 PM,82.4,71.6,70,29.87,10.0,NNW,10.4,-,N/A,,Overcast,330,2012-09-03 20:16:00
3:35 PM,82.4,71.6,70,29.87,10.0,NNW,8.1,-,N/A,,Overcast,330,2012-09-03 20:35:00
3:52 PM,82.0,71.1,69,29.86,10.0,North,10.4,-,N/A,,Overcast,350,2012-09-03 20:52:00
4:52 PM,81.0,71.1,72,29.86,10.0,NNW,10.4,-,N/A,,Overcast,330,2012-09-03 21:52:00
9:52 PM,73.0,72.0,96,29.88,4.0,Calm,Calm,-,N/A,,Clear,0,2012-09-04 02:52:00
11:42 PM,71.6,69.8,94,29.88,1.8,Calm,Calm,-,N/A,,Mist,0,2012-09-04 04:42:00